Stations météo

réclame
Mon MeteoGroup
Vigo Peinador, Espagne (8045): Température de l'air & dewpoint: 15.10.2018 17:00:00 - 21.10.2018 17:00:00 (CEST)Vigo Peinador, Espagne (8045): Vitesse du vent: 15.10.2018 17:00:00 - 21.10.2018 17:00:00 (CEST)Vigo Peinador, Espagne (8045): Direction du vent: 15.10.2018 17:00:00 - 21.10.2018 17:00:00 (CEST)Vigo Peinador, Espagne (8045): reduced air pressure: 15.10.2018 17:00:00 - 21.10.2018 17:00:00 (CEST)Vigo Peinador, Espagne (8045): visibility: 15.10.2018 17:00:00 - 21.10.2018 17:00:00 (CEST)
Date & Time tt [°C] td [°C] ff [km/h] ff [knt] dd ppp [hPa] vv [km]
21.10.2018 17:00:00 - - - - - - -
21.10.2018 16:00:00 25,0 13,0 4 2 - - 10
21.10.2018 15:00:00 23,7 13,4 8 4 NNE 1018,5 10
21.10.2018 14:00:00 22,6 13,1 5 3 NE 1019,0 35
21.10.2018 13:00:00 19,6 13,0 9 5 ENE 1019,9 10
21.10.2018 12:00:00 20,1 11,6 11 6 E 1019,9 10
21.10.2018 11:00:00 18,7 11,6 9 5 WSW 1020,1 10
21.10.2018 10:00:00 19,6 11,2 18 10 ESE 1019,7 10
21.10.2018 09:00:00 19,4 11,2 16 9 E 1019,3 10
21.10.2018 08:00:00 18,6 11,1 9 5 NNE 1018,9 10
21.10.2018 07:00:00 19,3 11,1 11 6 - 1018,5 10
21.10.2018 06:00:00 19,4 11,0 24 13 E 1018,3 10
21.10.2018 05:00:00 19,4 10,9 16 9 E 1018,1 10
21.10.2018 04:00:00 20,3 11,0 24 13 ESE 1018,4 10
21.10.2018 03:00:00 20,0 11,0 16 9 ESE 1018,5 10
21.10.2018 02:00:00 19,3 11,1 18 10 E 1018,8 30
21.10.2018 01:00:00 16,8 12,5 8 4 - 1019,2 10
21.10.2018 00:00:00 17,7 12,2 8 4 NE 1019,1 10
20.10.2018 23:00:00 17,6 13,1 9 5 N 1018,7 30
20.10.2018 22:00:00 17,4 13,5 11 6 NNE 1018,1 10
20.10.2018 21:00:00 19,6 12,4 11 6 N 1018,1 10
20.10.2018 20:00:00 21,3 11,6 13 7 E 1017,3 10
20.10.2018 19:00:00 22,9 12,1 9 5 ENE 1016,9 10
20.10.2018 18:00:00 23,8 11,7 16 9 E 1017,2 10
20.10.2018 17:00:00 24,0 12,4 15 8 E 1017,3 30
20.10.2018 16:00:00 24,1 11,7 16 9 E 1017,9 10
20.10.2018 15:00:00 23,6 11,8 2 1 NW 1018,8 10
20.10.2018 14:00:00 21,7 12,4 9 5 NE 1019,6 10
20.10.2018 13:00:00 19,5 12,2 11 6 NE 1020,2 10
20.10.2018 12:00:00 17,9 11,9 4 2 - 1020,4 10
20.10.2018 11:00:00 17,4 10,0 4 2 SE 1020,3 10
20.10.2018 10:00:00 15,6 10,6 8 4 S 1020,1 10
20.10.2018 09:00:00 13,2 10,7 5 3 ESE 1019,5 10
20.10.2018 08:00:00 13,4 10,6 5 3 N 1018,9 10
20.10.2018 07:00:00 13,5 11,0 0 0 N 1018,6 10
20.10.2018 06:00:00 13,8 11,6 5 3 NE 1018,6 10
20.10.2018 05:00:00 14,8 11,6 5 3 NNE 1018,6 10
20.10.2018 04:00:00 13,8 12,3 0 0 N 1018,8 10
20.10.2018 03:00:00 14,9 12,2 2 1 - 1018,7 10
20.10.2018 02:00:00 15,2 12,4 2 1 SE 1018,6 10
20.10.2018 01:00:00 15,3 13,0 5 3 NE 1018,2 10
20.10.2018 00:00:00 16,1 13,0 0 0 N 1018,0 10
19.10.2018 23:00:00 15,9 13,4 8 4 NE 1018,1 10
19.10.2018 22:00:00 17,2 13,1 9 5 N 1017,3 10
19.10.2018 21:00:00 17,8 13,3 11 6 NNE 1016,7 10
19.10.2018 20:00:00 18,8 13,6 9 5 NNE 1016,0 10
19.10.2018 19:00:00 20,3 13,7 18 10 N 1015,2 10
19.10.2018 18:00:00 21,6 13,6 21 11 NNE 1014,8 10
19.10.2018 17:00:00 22,4 13,4 16 9 NNE 1014,5 10
19.10.2018 16:00:00 22,4 13,8 18 10 NNE 1014,7 10
19.10.2018 15:00:00 22,7 13,3 13 7 NNE 1015,1 10
19.10.2018 14:00:00 22,2 13,0 16 9 N 1015,8 30
19.10.2018 13:00:00 20,5 12,8 9 5 NNE 1016,5 10
19.10.2018 12:00:00 19,0 12,8 4 2 - 1016,7 10
19.10.2018 11:00:00 16,6 12,2 13 7 NNE 1016,9 10
19.10.2018 10:00:00 15,1 13,4 5 3 - 1016,6 10
19.10.2018 09:00:00 13,6 12,5 5 3 - 1016,0 10
19.10.2018 08:00:00 14,7 11,7 5 3 - 1015,6 10
19.10.2018 07:00:00 15,0 12,1 11 6 NE 1015,1 10
19.10.2018 06:00:00 15,1 12,0 16 9 NE 1015,5 10
19.10.2018 05:00:00 14,0 12,4 16 9 NE 1016,1 10
19.10.2018 04:00:00 13,1 12,6 5 3 E 1016,4 10
19.10.2018 03:00:00 13,5 12,6 5 3 N 1016,4 10
19.10.2018 02:00:00 14,3 12,5 16 9 N 1016,5 10
19.10.2018 01:00:00 14,2 12,2 9 5 NNE 1016,6 10
19.10.2018 00:00:00 14,1 12,9 9 5 NE 1016,5 10
18.10.2018 23:00:00 14,5 13,2 5 3 NE 1016,2 30
18.10.2018 22:00:00 15,9 12,4 13 7 NNE 1015,2 10
18.10.2018 21:00:00 16,3 12,6 18 10 ENE 1014,8 10
18.10.2018 20:00:00 17,6 12,7 18 10 NNE 1014,0 10
18.10.2018 19:00:00 19,1 12,3 21 11 NE 1013,3 10
18.10.2018 18:00:00 19,7 12,5 22 12 NNE 1013,1 10
18.10.2018 17:00:00 20,5 12,7 16 9 NNE 1013,0 10
18.10.2018 16:00:00 20,5 13,3 21 11 NNE 1013,3 10
18.10.2018 15:00:00 19,8 12,9 18 10 NE 1013,7 10
18.10.2018 14:00:00 19,7 13,2 15 8 NE 1014,4 10
18.10.2018 13:00:00 17,6 13,0 15 8 NNE 1014,8 10
18.10.2018 12:00:00 17,7 14,1 13 7 ENE 1014,6 10
18.10.2018 11:00:00 15,8 14,2 11 6 NE 1014,6 10
18.10.2018 10:00:00 14,2 12,1 15 8 NNE 1014,0 10
18.10.2018 09:00:00 11,8 11,8 4 2 NE 1013,8 8
18.10.2018 08:00:00 11,6 11,6 9 5 NNE 1013,3 6
18.10.2018 07:00:00 11,7 11,7 5 3 - 1013,0 1,5
18.10.2018 06:00:00 12,0 12,0 11 6 NNE 1012,4 0,3
18.10.2018 05:00:00 12,2 12,2 11 6 NNE 1012,9 4,0
18.10.2018 04:00:00 12,2 12,2 9 5 NNE 1013,1 2,0
18.10.2018 03:00:00 12,2 12,2 8 4 NE 1013,4 0,6
18.10.2018 02:00:00 12,3 12,3 5 3 NE 1013,5 1,5
18.10.2018 01:00:00 12,3 12,3 15 8 NNE 1013,9 2,0
18.10.2018 00:00:00 12,2 12,2 15 8 N 1014,2 3,0
17.10.2018 23:00:00 12,6 12,6 5 3 NNE 1014,6 1,0
17.10.2018 22:00:00 12,8 12,8 5 3 N 1014,5 3,0
17.10.2018 21:00:00 12,9 12,9 13 7 N 1014,7 2,5
17.10.2018 20:00:00 13,1 13,1 5 3 NW 1014,6 0,9
17.10.2018 19:00:00 13,5 13,5 0 0 N 1014,2 6
17.10.2018 18:00:00 13,3 13,3 8 4 WSW 1014,5 8
17.10.2018 17:00:00 13,5 13,5 2 1 SE 1015,2 0,9
17.10.2018 16:00:00 13,4 13,4 0 0 N 1015,5 0,9
17.10.2018 15:00:00 13,9 13,9 2 1 - 1016,0 1,5
17.10.2018 14:00:00 14,5 13,9 5 3 W 1016,8 4,0
17.10.2018 13:00:00 15,0 14,7 2 1 - 1017,1 5
17.10.2018 12:00:00 14,1 14,1 5 3 - 1017,5 2,0
17.10.2018 11:00:00 12,9 12,9 9 5 SSW 1018,0 0,5
17.10.2018 10:00:00 11,2 11,2 9 5 SW 1018,2 0,1
17.10.2018 09:00:00 11,6 11,6 11 6 SW 1018,0 0,2
17.10.2018 08:00:00 12,4 12,4 8 4 WSW 1018,7 4,0
17.10.2018 07:00:00 11,7 11,7 9 5 SSW 1018,7 0,1
17.10.2018 06:00:00 12,4 12,4 11 6 SW 1018,6 10
17.10.2018 05:00:00 12,5 12,5 8 4 WSW 1018,5 10
17.10.2018 04:00:00 12,6 12,6 8 4 WSW 1018,7 10
17.10.2018 03:00:00 12,4 12,4 8 4 WSW 1019,1 10
17.10.2018 02:00:00 12,3 12,3 5 3 WSW 1019,4 10
17.10.2018 01:00:00 13,1 13,1 5 3 NNW 1019,4 10
17.10.2018 00:00:00 13,2 13,2 5 3 N 1019,6 10
16.10.2018 23:00:00 13,9 13,9 5 3 NW 1019,5 10
16.10.2018 22:00:00 13,9 13,4 4 2 - 1019,1 10
16.10.2018 21:00:00 14,3 13,3 5 3 NW 1019,0 10
16.10.2018 20:00:00 15,1 13,2 8 4 WNW 1018,5 10
16.10.2018 19:00:00 16,8 13,7 15 8 W 1017,8 10
16.10.2018 18:00:00 18,8 14,7 13 7 WSW 1017,3 10
16.10.2018 17:00:00 20,1 14,8 5 3 - 1017,2 10
16.10.2018 16:00:00 18,8 13,3 8 4 N 1017,1 10
16.10.2018 15:00:00 20,7 13,4 4 2 S 1016,9 10
16.10.2018 14:00:00 18,9 15,1 5 3 - 1017,4 10
16.10.2018 13:00:00 17,8 15,6 5 3 - 1017,4 10
16.10.2018 12:00:00 15,1 15,1 4 2 - 1017,4 8
16.10.2018 11:00:00 13,9 13,9 0 0 N 1017,0 2,5
16.10.2018 10:00:00 13,6 13,6 2 1 - 1016,4 1,0
16.10.2018 09:00:00 13,2 13,2 4 2 - 1015,4 0,5
16.10.2018 08:00:00 13,6 13,6 4 2 - 1014,8 2,5
16.10.2018 07:00:00 13,8 13,8 5 3 SSW 1014,2 3,0
16.10.2018 06:00:00 13,8 13,8 2 1 SSW 1013,6 1,4
16.10.2018 05:00:00 13,9 13,9 5 3 SSW 1013,2 3,5
16.10.2018 04:00:00 14,0 14,0 5 3 SW 1013,1 7
16.10.2018 03:00:00 14,1 14,1 2 1 SSW 1013,1 1,5
16.10.2018 02:00:00 14,1 14,1 0 0 N 1012,8 2,1
16.10.2018 01:00:00 14,1 14,1 0 0 N 1012,5 0,3
16.10.2018 00:00:00 14,1 14,1 8 4 SSW 1011,9 0,3
15.10.2018 23:00:00 14,5 14,5 0 0 N 1011,2 0,5
15.10.2018 22:00:00 14,5 14,5 4 2 N 1010,4 6
15.10.2018 21:00:00 14,7 14,7 5 3 N 1009,9 3,2
15.10.2018 20:00:00 15,1 15,1 2 1 SSW 1008,7 3,5
15.10.2018 19:00:00 15,3 15,3 5 3 S 1007,7 3,5
15.10.2018 18:00:00 15,1 15,1 9 5 SSE 1007,2 -
15.10.2018 17:00:00 15,2 15,2 8 4 S 1006,3 0,9

tt = Température de l'air
td = dewpoint
ff = Vitesse du vent
dd = Direction du vent
ppp = reduced air pressure
vv = visibility

stations d'obs. à proximité